Flag for Romania Weather past 2 weeks in Oradea, Romania

Now
66 °F

Light rain. Mostly cloudy.


Feels Like: 66 °F
Forecast: 64 / 83 °F
Wind: 2 mph from North

Location: Oradea Airport

Current Time: Jul 24, 2014 at 5:42:51 AM

Latest Report: Jul 24, 2014 at 5:00 AM


Visibility: N/A

Pressure: 29.77 "Hg

Humidity: 94%

Dew point: 64 °F

Location of OradeaLocation

Historic Weather in Oradea — Graph

°F

Oradea temperature yesterday

Maximum temperature yesterday: 72 °F (at 11:30 AM)
Minimum temperature yesterday: 64 °F (at 2:00 AM)
Average temperature yesterday: 67 °F

Past Weeks' High & Low Weather Summary

 TemperatureHumidityPressure
High91 °F (Jul 21, 2:30 PM)100% (Jul 9, 8:00 AM)30.04 "Hg (Jul 9, 8:00 AM)
Low57 °F (Jul 12, 1:00 AM)25% (Jul 20, 6:30 PM)29.59 "Hg (Jul 11, 6:30 AM)
Average72 °F70%29.87 "Hg
* Reported Jul 9 3:00 AM — Jul 24 3:00 AM, Oradea, Weather by CustomWeather, © 2014

Note: Actual official high and low records may vary slightly from our data, if they occured in-between our weather recording intervals... More about our weather records

Advertising

Oradea weather history for previous 24 hours

 ConditionsComfort  
Time TempWeatherWind HumidityBarometerVisibility
3:00 AM
Jul 24
64 °FMostly cloudy.5 mph100%29.77 "HgN/A
2:00 AM64 °FPassing clouds.2 mph100%29.77 "HgN/A
1:00 AM64 °FOvercast.5 mph100%29.77 "HgN/A
12:00 AM64 °FRain. Passing clouds.2 mph100%29.77 "Hg4 mi
11:00 PM
Jul 23
66 °FLight rain. Partly cloudy.5 mph94%29.77 "HgN/A
10:30 PM66 °FHeavy rain. Partly cloudy.5 mph94%29.77 "Hg5 mi
10:00 PM66 °FRain. Partly sunny.5 mph94%29.77 "Hg4 mi
9:30 PM68 °FPartly sunny.5 mph88%29.77 "HgN/A
9:00 PM68 °FBroken clouds.7 mph88%29.77 "HgN/A
8:30 PM68 °FPartly sunny.5 mph94%29.77 "HgN/A
7:30 PM68 °FPartly sunny.5 mph88%29.74 "HgN/A
7:00 PM68 °FPartly sunny.5 mph94%29.74 "HgN/A
6:30 PM66 °FLight rain. Partly sunny.2 mph94%29.74 "HgN/A
6:00 PM66 °FLight rain. Broken clouds.5 mph88%29.74 "HgN/A
5:30 PM66 °FBroken clouds.5 mph88%29.74 "HgN/A
5:00 PM68 °FPartly sunny.5 mph88%29.74 "HgN/A
4:00 PM70 °FPartly sunny.5 mph83%29.74 "HgN/A
3:30 PM68 °FScattered clouds.2 mph94%29.74 "HgN/A
3:00 PM66 °FPartly sunny.7 mph94%29.74 "HgN/A
2:30 PM66 °FLight rain. Partly sunny.5 mph94%29.74 "Hg3 mi
2:00 PM64 °FHeavy rain. Scattered clouds.5 mph94%29.74 "Hg3 mi
1:30 PM66 °FLight rain. Partly sunny.5 mph88%29.74 "HgN/A
1:00 PM66 °FSprinkles. Partly sunny.7 mph94%29.74 "Hg4 mi
12:30 PM72 °FPartly sunny.5 mph78%29.74 "HgN/A
12:00 PM72 °FPartly sunny.5 mph78%29.74 "HgN/A
11:30 AM72 °FBroken clouds.7 mph78%29.74 "HgN/A
9:00 AM68 °FLow clouds.5 mph94%29.74 "HgN/A
8:30 AM68 °FLow clouds.5 mph94%29.74 "Hg5 mi
8:00 AM68 °FMostly cloudy.2 mph94%29.74 "Hg6 mi
7:30 AM66 °FMostly cloudy.2 mph100%29.74 "Hg4 mi
7:00 AM66 °FFog.2 mph100%29.74 "Hg3 mi
6:30 AM66 °FMostly cloudy.2 mph100%29.74 "Hg4 mi
6:00 AM66 °FPartly cloudy.5 mph100%29.74 "Hg5 mi
5:30 AM66 °FFog.5 mph100%29.74 "Hg3 mi
5:00 AM66 °FFog.5 mph100%29.74 "Hg2 mi
Weather by CustomWeather, © 2014

See weather overviewHow to use our weather pages